Location: Kellogg
(38.0159°N, 90.0546°W)
Time: 08:39:11
(UTC+00:00)

Altair - Pass Details

Date: 14 September 2024
Orbit: 1501 x 1682 km, 47.2° (Epoch: 07 October)

Event Time Altitude Azimuth Distance (km) Brightness Sun altitude
Rises 14:10:30 0° 300° (WNW) 4,938 9.6 28.0°
Reaches altitude 10° 14:13:41 10° 301° (WNW) 3,948 9.2 28.6°
Maximum altitude 14:23:55 82° 30° (NNE) 1,680 8.3 30.5°
Drops below altitude 10° 14:33:53 10° 119° (ESE) 3,854 11.1 32.3°
Sets 14:36:57 0° 120° (ESE) 4,815 11.2 32.8°
